User: anonymous   Login
Location: Mascot Post Office (historical)
(40.2645°N, 99.5462°W)
Time: 12:40:57
(UTC+00:00)
Language:

CZ-2C R/B - Orbit

View from above orbital plane
View from above orbital plane
View from above satellite
View from above satellite

Ground track
Ground track

The orbit data is extracted from the following two-line orbital elements,

1 28222U 04012C   20272.14608067  .00001054  00000-0  66462-4 0  9996
2 28222  97.6891 235.0296 0048131  40.2707  87.5652 15.10475709901532
Epoch (UTC): 28 September 2020 03:30:21
Eccentricity: 0.0048131
inclination: 97.6891°
perigee height: 501 km
apogee height: 568 km
right ascension of ascending node: 235.0296°
argument of perigee: 40.2707°
revolutions per day: 15.10475709
mean anomaly at epoch: 87.5652°
orbit number at epoch: 90153

The dashed part of the orbit path shows where the satellite is in the earth's shadow,  

DLR